Year,Month,Day,Hour,Minute,Value (Times are PST for temperature in C)
2020,10,25,05,12,2.00
2020,10,25,05,13,2.00
2020,10,25,05,14,1.90
2020,10,25,05,15,2.00
2020,10,25,05,16,1.90
2020,10,25,05,17,1.90
2020,10,25,05,18,1.90
2020,10,25,05,19,1.90
2020,10,25,05,20,1.90
2020,10,25,05,21,1.90
2020,10,25,05,22,1.90
2020,10,25,05,23,1.90
2020,10,25,05,24,1.90
2020,10,25,05,25,1.90
2020,10,25,05,26,1.90
2020,10,25,05,27,1.90
2020,10,25,05,28,2.00
2020,10,25,05,29,2.00
2020,10,25,05,30,1.90
2020,10,25,05,31,1.90
2020,10,25,05,32,1.90
2020,10,25,05,33,2.00
2020,10,25,05,34,2.00
2020,10,25,05,35,2.00
2020,10,25,05,36,2.00
2020,10,25,05,37,2.00
2020,10,25,05,38,2.00
2020,10,25,05,39,2.00
2020,10,25,05,40,1.90
2020,10,25,05,41,2.00
2020,10,25,05,42,2.00
2020,10,25,05,43,1.90
2020,10,25,05,44,1.90
2020,10,25,05,45,1.90
2020,10,25,05,46,1.90
2020,10,25,05,47,1.90
2020,10,25,05,48,1.90
2020,10,25,05,49,1.90
2020,10,25,05,50,1.90
2020,10,25,05,51,1.90
2020,10,25,05,52,2.00
2020,10,25,05,53,2.00
2020,10,25,05,54,2.00
2020,10,25,05,55,2.00
2020,10,25,05,56,2.00
2020,10,25,05,57,2.00
2020,10,25,05,58,2.00
2020,10,25,05,59,2.00
2020,10,25,06,00,1.90
2020,10,25,06,01,1.90
2020,10,25,06,02,1.90
2020,10,25,06,03,1.90
2020,10,25,06,04,1.90
2020,10,25,06,05,1.90
2020,10,25,06,06,1.90
2020,10,25,06,07,1.90
2020,10,25,06,08,1.90
2020,10,25,06,09,1.90
2020,10,25,06,10,1.90
2020,10,25,06,11,1.90
2020,10,25,06,12,1.90
2020,10,25,06,13,1.90
2020,10,25,06,14,1.90
2020,10,25,06,15,1.90
2020,10,25,06,16,1.90
2020,10,25,06,17,1.90
2020,10,25,06,18,1.90
2020,10,25,06,19,1.90
2020,10,25,06,20,1.90
2020,10,25,06,21,1.90
2020,10,25,06,22,1.90
2020,10,25,06,23,1.90
2020,10,25,06,24,1.90
2020,10,25,06,25,1.90
2020,10,25,06,26,1.90
2020,10,25,06,27,1.90
2020,10,25,06,28,1.90
2020,10,25,06,29,2.00
2020,10,25,06,30,2.00
2020,10,25,06,31,1.90
2020,10,25,06,32,2.00
2020,10,25,06,33,1.90
2020,10,25,06,34,1.90
2020,10,25,06,35,1.90
2020,10,25,06,36,1.90
2020,10,25,06,37,1.90
2020,10,25,06,38,1.90
2020,10,25,06,39,1.90
2020,10,25,06,40,1.90
2020,10,25,06,41,1.90
2020,10,25,06,42,1.90
2020,10,25,06,43,1.90
2020,10,25,06,44,1.90
2020,10,25,06,45,1.90
2020,10,25,06,46,1.90
2020,10,25,06,47,1.90
2020,10,25,06,48,1.90
2020,10,25,06,49,1.90
2020,10,25,06,50,1.90
2020,10,25,06,51,1.90
2020,10,25,06,52,1.90
2020,10,25,06,53,1.90
2020,10,25,06,54,1.90
2020,10,25,06,55,1.90
2020,10,25,06,56,1.90
2020,10,25,06,57,1.90
2020,10,25,06,58,1.90
2020,10,25,06,59,1.90
2020,10,25,07,00,1.90
2020,10,25,07,01,1.90
2020,10,25,07,02,1.90
2020,10,25,07,03,1.90
2020,10,25,07,04,1.90
2020,10,25,07,05,1.90
2020,10,25,07,06,1.80
2020,10,25,07,07,1.80
2020,10,25,07,08,1.80
2020,10,25,07,09,1.80
2020,10,25,07,10,1.80
2020,10,25,07,11,1.80
2020,10,25,07,12,1.80
2020,10,25,07,13,1.80
2020,10,25,07,14,1.80
2020,10,25,07,15,1.80
2020,10,25,07,16,1.80
2020,10,25,07,17,1.80
2020,10,25,07,18,1.80
2020,10,25,07,19,1.80
2020,10,25,07,20,1.80
2020,10,25,07,21,1.80
2020,10,25,07,22,1.80
2020,10,25,07,23,1.80
2020,10,25,07,24,1.80
2020,10,25,07,25,1.80
2020,10,25,07,26,1.80
2020,10,25,07,27,1.80
2020,10,25,07,28,1.80
2020,10,25,07,29,1.80
2020,10,25,07,30,1.70
2020,10,25,07,31,1.70
2020,10,25,07,32,1.70
2020,10,25,07,33,1.70
2020,10,25,07,34,1.70
2020,10,25,07,35,1.70
2020,10,25,07,36,1.70
2020,10,25,07,37,1.70
2020,10,25,07,38,1.70
2020,10,25,07,39,1.70
2020,10,25,07,40,1.70
2020,10,25,07,41,1.70
2020,10,25,07,42,1.70
2020,10,25,07,43,1.80
2020,10,25,07,44,1.80
2020,10,25,07,45,1.70
2020,10,25,07,46,1.70
2020,10,25,07,47,1.80
2020,10,25,07,48,1.80
2020,10,25,07,49,1.80
2020,10,25,07,50,1.70
2020,10,25,07,51,1.70
2020,10,25,07,52,1.70
2020,10,25,07,53,1.70
2020,10,25,07,54,1.70
2020,10,25,07,55,1.70
2020,10,25,07,56,1.70
2020,10,25,07,57,1.70
2020,10,25,07,58,1.70
2020,10,25,07,59,1.70
2020,10,25,08,00,1.70
2020,10,25,08,01,1.70
2020,10,25,08,02,1.70
2020,10,25,08,03,1.70
2020,10,25,08,04,1.70
2020,10,25,08,05,1.70
2020,10,25,08,06,1.70
2020,10,25,08,07,1.70
2020,10,25,08,08,1.80
2020,10,25,08,09,1.80
2020,10,25,08,10,1.80
2020,10,25,08,11,1.80
2020,10,25,08,12,1.80
2020,10,25,08,13,1.80
2020,10,25,08,14,1.80
2020,10,25,08,15,1.80
2020,10,25,08,16,1.80
2020,10,25,08,17,1.80
2020,10,25,08,18,1.80
2020,10,25,08,19,1.80
2020,10,25,08,20,1.80
2020,10,25,08,21,1.80
2020,10,25,08,22,1.80
2020,10,25,08,23,1.80
2020,10,25,08,24,1.80
2020,10,25,08,25,1.80
2020,10,25,08,26,1.80
2020,10,25,08,27,1.80
2020,10,25,08,28,1.80
2020,10,25,08,29,1.80
2020,10,25,08,30,1.80
2020,10,25,08,31,1.80
2020,10,25,08,32,1.80
2020,10,25,08,33,1.80
2020,10,25,08,34,1.80
2020,10,25,08,35,1.80
2020,10,25,08,36,1.80
2020,10,25,08,37,1.80
2020,10,25,08,38,1.80
2020,10,25,08,39,1.90
2020,10,25,08,40,1.90
2020,10,25,08,41,2.00
2020,10,25,08,42,2.00
2020,10,25,08,43,2.10
2020,10,25,08,44,2.10
2020,10,25,08,45,2.20
2020,10,25,08,46,2.20
2020,10,25,08,47,2.20
2020,10,25,08,48,2.20
2020,10,25,08,49,2.30
2020,10,25,08,50,2.30
2020,10,25,08,51,2.30
2020,10,25,08,52,2.30
2020,10,25,08,53,2.30
2020,10,25,08,54,2.30
2020,10,25,08,55,2.30
2020,10,25,08,56,2.30
2020,10,25,08,57,2.30
2020,10,25,08,58,2.30
2020,10,25,08,59,2.30
2020,10,25,09,00,2.40
2020,10,25,09,01,2.40
2020,10,25,09,02,2.40
2020,10,25,09,03,2.40
2020,10,25,09,04,2.40
2020,10,25,09,05,2.40
2020,10,25,09,06,2.40
2020,10,25,09,07,2.40
2020,10,25,09,08,2.40
2020,10,25,09,09,2.40
2020,10,25,09,10,2.50
2020,10,25,09,11,2.50
2020,10,25,09,12,2.50
2020,10,25,09,13,2.50
2020,10,25,09,14,2.60
2020,10,25,09,15,2.60
2020,10,25,09,16,2.60
2020,10,25,09,17,2.60
2020,10,25,09,18,2.60
2020,10,25,09,19,2.60
2020,10,25,09,20,2.70
2020,10,25,09,21,2.70
2020,10,25,09,22,2.70
2020,10,25,09,23,2.70
2020,10,25,09,24,2.70
2020,10,25,09,25,2.70
2020,10,25,09,26,2.70
2020,10,25,09,27,2.70
2020,10,25,09,28,2.70
2020,10,25,09,29,2.70
2020,10,25,09,30,2.70
2020,10,25,09,31,2.80
2020,10,25,09,32,2.80
2020,10,25,09,33,2.80
2020,10,25,09,34,2.80
2020,10,25,09,35,2.80
2020,10,25,09,36,2.80
2020,10,25,09,37,2.80
2020,10,25,09,38,2.80
2020,10,25,09,39,2.80
2020,10,25,09,40,2.80
2020,10,25,09,41,2.80
2020,10,25,09,42,2.80
2020,10,25,09,43,2.80
2020,10,25,09,44,2.80
2020,10,25,09,45,2.90
2020,10,25,09,46,2.90
2020,10,25,09,47,2.90
2020,10,25,09,48,2.90
2020,10,25,09,49,3.00
2020,10,25,09,50,2.90
2020,10,25,09,51,3.00
2020,10,25,09,52,3.00
2020,10,25,09,53,3.00
2020,10,25,09,54,3.00
2020,10,25,09,55,3.00
2020,10,25,09,56,3.10
2020,10,25,09,57,3.10
2020,10,25,09,58,3.20
2020,10,25,09,59,3.20
2020,10,25,10,00,3.20
2020,10,25,10,01,3.20
2020,10,25,10,02,3.20
2020,10,25,10,03,3.20
2020,10,25,10,04,3.20
2020,10,25,10,05,3.30
2020,10,25,10,06,3.30
2020,10,25,10,07,3.30
2020,10,25,10,08,3.30
2020,10,25,10,09,3.30
2020,10,25,10,10,3.40
2020,10,25,10,11,3.40
2020,10,25,10,12,3.40
2020,10,25,10,13,3.40
2020,10,25,10,14,3.50
2020,10,25,10,15,3.50
2020,10,25,10,16,3.50
2020,10,25,10,17,3.50
2020,10,25,10,18,3.50
2020,10,25,10,19,3.50
2020,10,25,10,20,3.50
2020,10,25,10,21,3.50
2020,10,25,10,22,3.40
2020,10,25,10,23,3.50
2020,10,25,10,24,3.50
2020,10,25,10,25,3.50
2020,10,25,10,26,3.50
2020,10,25,10,27,3.60
2020,10,25,10,28,3.60
2020,10,25,10,29,3.70
2020,10,25,10,30,3.70
2020,10,25,10,31,3.60
2020,10,25,10,32,3.70
2020,10,25,10,33,3.70
2020,10,25,10,34,3.70
2020,10,25,10,35,3.80
2020,10,25,10,36,3.80
2020,10,25,10,37,3.80
2020,10,25,10,38,3.80
2020,10,25,10,39,3.80
2020,10,25,10,40,3.80
2020,10,25,10,41,3.80
2020,10,25,10,42,3.80
2020,10,25,10,43,3.80
2020,10,25,10,44,3.70
2020,10,25,10,45,3.80
2020,10,25,10,46,3.70
2020,10,25,10,47,3.70
2020,10,25,10,48,3.80
2020,10,25,10,49,3.90
2020,10,25,10,50,3.90
2020,10,25,10,51,4.00
2020,10,25,10,52,4.00
2020,10,25,10,53,4.10
2020,10,25,10,54,4.10
2020,10,25,10,55,4.20
2020,10,25,10,56,4.20
2020,10,25,10,57,4.20
2020,10,25,10,58,4.20
2020,10,25,10,59,4.20
2020,10,25,11,00,4.20
2020,10,25,11,01,4.20
2020,10,25,11,02,4.10
2020,10,25,11,03,4.10
2020,10,25,11,04,4.10
2020,10,25,11,05,4.10
2020,10,25,11,06,4.10
2020,10,25,11,07,4.10
2020,10,25,11,08,4.20
2020,10,25,11,09,4.20
2020,10,25,11,10,4.20
2020,10,25,11,11,4.30
2020,10,25,11,12,4.30
2020,10,25,11,13,4.40
2020,10,25,11,14,4.40
2020,10,25,11,15,4.40
2020,10,25,11,16,4.60
2020,10,25,11,17,4.60
2020,10,25,11,18,4.50
2020,10,25,11,19,4.50
2020,10,25,11,20,4.40
2020,10,25,11,21,4.40
2020,10,25,11,22,4.30
2020,10,25,11,23,4.40
2020,10,25,11,24,4.40
2020,10,25,11,25,4.40
2020,10,25,11,26,4.30
2020,10,25,11,27,4.30
2020,10,25,11,28,4.30
2020,10,25,11,29,4.30
2020,10,25,11,30,4.30
2020,10,25,11,31,4.30
2020,10,25,11,32,4.30
2020,10,25,11,33,4.30
2020,10,25,11,34,4.30
2020,10,25,11,35,4.30
2020,10,25,11,36,4.30
2020,10,25,11,37,4.20
2020,10,25,11,38,4.20
2020,10,25,11,39,4.20
2020,10,25,11,40,4.20
2020,10,25,11,41,4.20
2020,10,25,11,42,4.20
2020,10,25,11,43,4.20
2020,10,25,11,44,4.20
2020,10,25,11,45,4.20
2020,10,25,11,46,4.20
2020,10,25,11,47,4.30
2020,10,25,11,48,4.30
2020,10,25,11,49,4.40
2020,10,25,11,50,4.40
2020,10,25,11,51,4.40
2020,10,25,11,52,4.40
2020,10,25,11,53,4.40
2020,10,25,11,54,4.50
2020,10,25,11,55,4.40
2020,10,25,11,56,4.40
2020,10,25,11,57,4.40
2020,10,25,11,58,4.30
2020,10,25,11,59,4.30
2020,10,25,12,00,4.30
2020,10,25,12,01,4.40
2020,10,25,12,02,4.40
2020,10,25,12,03,4.40
2020,10,25,12,04,4.50
2020,10,25,12,05,4.60
2020,10,25,12,06,4.60
2020,10,25,12,07,4.60
2020,10,25,12,08,4.50
2020,10,25,12,09,4.50
2020,10,25,12,10,4.40
2020,10,25,12,11,4.40
2020,10,25,12,12,4.40
2020,10,25,12,13,4.40
2020,10,25,12,14,4.40
2020,10,25,12,15,4.40
2020,10,25,12,16,4.40
2020,10,25,12,17,4.40
2020,10,25,12,18,4.30
2020,10,25,12,19,4.30
2020,10,25,12,20,4.30
2020,10,25,12,21,4.20
2020,10,25,12,22,4.20
2020,10,25,12,23,4.20
2020,10,25,12,24,4.10
2020,10,25,12,25,4.10
2020,10,25,12,26,4.20
2020,10,25,12,27,4.30
2020,10,25,12,28,4.30
2020,10,25,12,29,4.40
2020,10,25,12,30,4.50
2020,10,25,12,31,4.60
2020,10,25,12,32,4.60
2020,10,25,12,33,4.60
2020,10,25,12,34,4.60
2020,10,25,12,35,4.60
2020,10,25,12,36,4.60
2020,10,25,12,37,4.60
2020,10,25,12,38,4.60
2020,10,25,12,39,4.60
2020,10,25,12,40,4.50
2020,10,25,12,41,4.50
2020,10,25,12,42,4.50
2020,10,25,12,43,4.50
2020,10,25,12,44,4.50
2020,10,25,12,45,4.50
2020,10,25,12,46,4.60
2020,10,25,12,47,4.60
2020,10,25,12,48,4.60
2020,10,25,12,49,4.60
2020,10,25,12,50,4.60
2020,10,25,12,51,4.50
2020,10,25,12,52,4.40
2020,10,25,12,53,4.40
2020,10,25,12,54,4.40
2020,10,25,12,55,4.40
2020,10,25,12,56,4.40
2020,10,25,12,57,4.50
2020,10,25,12,58,4.50
2020,10,25,12,59,4.50
2020,10,25,13,00,4.50
2020,10,25,13,01,4.50
2020,10,25,13,02,4.40
2020,10,25,13,03,4.40
2020,10,25,13,04,4.40
2020,10,25,13,05,4.50
2020,10,25,13,06,4.60
2020,10,25,13,07,4.50
2020,10,25,13,08,4.50
2020,10,25,13,09,4.40
2020,10,25,13,10,4.40
2020,10,25,13,11,4.40
2020,10,25,13,12,4.40
2020,10,25,13,13,4.40
2020,10,25,13,14,4.40
2020,10,25,13,15,4.30
2020,10,25,13,16,4.40
2020,10,25,13,17,4.40
2020,10,25,13,18,4.40
2020,10,25,13,19,4.40
2020,10,25,13,20,4.50
2020,10,25,13,21,4.50
2020,10,25,13,22,4.50
2020,10,25,13,23,4.40
2020,10,25,13,24,4.50
2020,10,25,13,25,5.30
2020,10,25,13,26,5.30
2020,10,25,13,27,5.30
2020,10,25,13,28,5.30
2020,10,25,13,29,5.40
2020,10,25,13,30,5.40
2020,10,25,13,31,5.40
2020,10,25,13,32,5.50
2020,10,25,13,33,5.50
2020,10,25,13,34,5.60
2020,10,25,13,35,5.60
2020,10,25,13,36,5.70
2020,10,25,13,37,5.70
2020,10,25,13,38,5.70
2020,10,25,13,39,5.70
2020,10,25,13,40,5.80
2020,10,25,13,41,5.80
2020,10,25,13,42,5.80
2020,10,25,13,43,5.80
2020,10,25,13,44,5.80
2020,10,25,13,45,5.70
2020,10,25,13,46,5.70
2020,10,25,13,47,5.70
2020,10,25,13,48,5.70
2020,10,25,13,49,5.70
2020,10,25,13,50,5.70
2020,10,25,13,51,5.70
2020,10,25,13,52,5.70
2020,10,25,13,53,5.70
2020,10,25,13,54,5.70
2020,10,25,13,55,5.70
2020,10,25,13,56,5.70
2020,10,25,13,57,5.70
2020,10,25,13,58,5.70
2020,10,25,13,59,5.70
2020,10,25,14,00,5.80
2020,10,25,14,01,5.80
2020,10,25,14,02,5.80
2020,10,25,14,03,5.80
2020,10,25,14,04,5.80
2020,10,25,14,05,5.80
2020,10,25,14,06,5.80
2020,10,25,14,07,5.80
2020,10,25,14,08,5.80
2020,10,25,14,09,5.80
2020,10,25,14,10,5.90
2020,10,25,14,11,5.90
2020,10,25,14,12,6.00
2020,10,25,14,13,6.10
2020,10,25,14,14,6.10
2020,10,25,14,15,6.10
2020,10,25,14,16,6.10
2020,10,25,14,17,6.10
2020,10,25,14,18,6.10
2020,10,25,14,19,6.00
2020,10,25,14,20,6.00
2020,10,25,14,21,6.00
2020,10,25,14,22,6.00
2020,10,25,14,23,6.00
2020,10,25,14,24,6.00
2020,10,25,14,25,6.00
2020,10,25,14,26,5.90
2020,10,25,14,27,5.90
2020,10,25,14,28,5.80
2020,10,25,14,29,5.70
2020,10,25,14,30,5.70
2020,10,25,14,31,5.70
2020,10,25,14,32,5.70
2020,10,25,14,33,5.70
2020,10,25,14,34,5.70
2020,10,25,14,35,5.70
2020,10,25,14,36,5.70
2020,10,25,14,37,5.70
2020,10,25,14,38,5.70
2020,10,25,14,39,5.70
2020,10,25,14,40,5.70
2020,10,25,14,41,5.70
2020,10,25,14,42,5.70
2020,10,25,14,43,5.80
2020,10,25,14,44,5.80
2020,10,25,14,45,5.80
2020,10,25,14,46,5.90
2020,10,25,14,47,5.90
2020,10,25,14,48,5.90
2020,10,25,14,49,5.90
2020,10,25,14,50,6.00
2020,10,25,14,51,6.00
2020,10,25,14,52,6.00
2020,10,25,14,53,6.00
2020,10,25,14,54,6.10
2020,10,25,14,55,6.10
2020,10,25,14,56,6.10
2020,10,25,14,57,6.20
2020,10,25,14,58,6.20
2020,10,25,14,59,6.20
2020,10,25,15,00,6.20
2020,10,25,15,01,6.20
2020,10,25,15,02,6.20
2020,10,25,15,03,6.30
2020,10,25,15,04,6.30
2020,10,25,15,05,6.20
2020,10,25,15,06,6.20
2020,10,25,15,07,6.20
2020,10,25,15,08,6.20
2020,10,25,15,09,6.20
2020,10,25,15,10,6.20
2020,10,25,15,11,6.20
2020,10,25,15,12,6.20
2020,10,25,15,13,6.20
2020,10,25,15,14,6.20
2020,10,25,15,15,6.20
2020,10,25,15,16,6.20
2020,10,25,15,17,6.20
2020,10,25,15,18,6.10
2020,10,25,15,19,6.10
2020,10,25,15,20,6.10
2020,10,25,15,21,6.10
2020,10,25,15,22,6.20
2020,10,25,15,23,6.20
2020,10,25,15,24,6.20
2020,10,25,15,25,6.20
2020,10,25,15,26,6.20
2020,10,25,15,27,6.10
2020,10,25,15,28,6.10
2020,10,25,15,29,6.10
2020,10,25,15,30,6.10
2020,10,25,15,31,6.20
2020,10,25,15,32,6.20
2020,10,25,15,33,6.20
2020,10,25,15,34,6.20
2020,10,25,15,35,6.30
2020,10,25,15,36,6.30
2020,10,25,15,37,6.30
2020,10,25,15,38,6.20
2020,10,25,15,39,6.20
2020,10,25,15,40,6.20
2020,10,25,15,41,6.20
2020,10,25,15,42,6.10
2020,10,25,15,43,6.10
2020,10,25,15,44,6.10
2020,10,25,15,45,6.10
2020,10,25,15,46,6.00
2020,10,25,15,47,5.90
2020,10,25,15,48,5.90
2020,10,25,15,49,5.90
2020,10,25,15,50,5.80
2020,10,25,15,51,5.80
2020,10,25,15,52,5.80
2020,10,25,15,53,5.80
2020,10,25,15,54,5.80
2020,10,25,15,55,5.80
2020,10,25,15,56,5.80
2020,10,25,15,57,5.80
2020,10,25,15,58,5.90
2020,10,25,15,59,5.90
2020,10,25,16,00,5.90
2020,10,25,16,01,5.90
2020,10,25,16,02,5.90
2020,10,25,16,03,5.90
2020,10,25,16,04,6.00
2020,10,25,16,05,5.90
2020,10,25,16,06,5.90
2020,10,25,16,07,5.90
2020,10,25,16,08,5.90
2020,10,25,16,09,5.90
2020,10,25,16,10,5.90
2020,10,25,16,11,5.90
2020,10,25,16,12,5.90
2020,10,25,16,13,5.90
2020,10,25,16,14,5.90
2020,10,25,16,15,5.90
2020,10,25,16,16,5.90
2020,10,25,16,17,5.90
2020,10,25,16,18,5.90
2020,10,25,16,19,5.90
2020,10,25,16,20,5.90
2020,10,25,16,21,5.90
2020,10,25,16,22,5.90
2020,10,25,16,23,5.90
2020,10,25,16,24,5.90
2020,10,25,16,25,5.90
2020,10,25,16,26,5.90
2020,10,25,16,27,5.90
2020,10,25,16,28,5.90
2020,10,25,16,29,5.90
2020,10,25,16,30,5.90
2020,10,25,16,31,5.90
2020,10,25,16,32,5.90
2020,10,25,16,33,5.90
2020,10,25,16,34,5.90
2020,10,25,16,35,5.90
2020,10,25,16,36,5.80
2020,10,25,16,37,5.80
2020,10,25,16,38,5.70
2020,10,25,16,39,5.70
2020,10,25,16,40,5.70
2020,10,25,16,41,5.70
2020,10,25,16,42,5.70
2020,10,25,16,43,5.70
2020,10,25,16,44,5.70
2020,10,25,16,45,5.70
2020,10,25,16,46,5.70
2020,10,25,16,47,5.70
2020,10,25,16,48,5.70
2020,10,25,16,49,5.70
2020,10,25,16,50,5.70
2020,10,25,16,51,5.70
2020,10,25,16,52,5.70
2020,10,25,16,53,5.70
2020,10,25,16,54,5.70
2020,10,25,16,55,5.70
2020,10,25,16,56,5.70
2020,10,25,16,57,5.70
2020,10,25,16,58,5.70
2020,10,25,16,59,5.70
2020,10,25,17,00,5.70
2020,10,25,17,01,5.80
2020,10,25,17,02,5.80
2020,10,25,17,03,5.80
2020,10,25,17,04,5.80
2020,10,25,17,05,5.80
2020,10,25,17,06,5.80
2020,10,25,17,07,5.80
2020,10,25,17,08,5.80
2020,10,25,17,09,5.80
2020,10,25,17,10,5.70
2020,10,25,17,11,5.70
2020,10,25,17,12,5.70
2020,10,25,17,13,5.70
2020,10,25,17,14,5.70
2020,10,25,17,15,5.70
2020,10,25,17,16,5.70
2020,10,25,17,17,5.60
2020,10,25,17,18,5.60
2020,10,25,17,19,5.60
2020,10,25,17,20,5.60
2020,10,25,17,21,5.60
2020,10,25,17,22,5.60
2020,10,25,17,23,5.50
2020,10,25,17,24,5.50
2020,10,25,17,25,5.50
2020,10,25,17,26,5.50
2020,10,25,17,27,5.50
2020,10,25,17,28,5.50
2020,10,25,17,29,5.50
2020,10,25,17,30,5.50
2020,10,25,17,31,5.50
2020,10,25,17,32,5.50
2020,10,25,17,33,5.50
2020,10,25,17,34,5.50
2020,10,25,17,35,5.50
2020,10,25,17,36,5.50
2020,10,25,17,37,5.50
2020,10,25,17,38,5.50
2020,10,25,17,39,5.50
2020,10,25,17,40,5.50
2020,10,25,17,41,5.50
2020,10,25,17,42,5.50
2020,10,25,17,43,5.50
2020,10,25,17,44,5.40
2020,10,25,17,45,5.40
2020,10,25,17,46,5.40
2020,10,25,17,47,5.40
2020,10,25,17,48,5.40
2020,10,25,17,49,5.40
2020,10,25,17,50,5.40
2020,10,25,17,51,5.40
2020,10,25,17,52,5.40
2020,10,25,17,53,5.40
2020,10,25,17,54,5.40
2020,10,25,17,55,5.40
2020,10,25,17,56,5.40
2020,10,25,17,57,5.40
2020,10,25,17,58,5.40
